Flag for Pakistan Weather past 2 weeks in Islamabad, Pakistan

Now
81 °F

Passing clouds.


Feels Like: 85 °F
Forecast: 65 / 94 °F
Wind: 5 mph from East

Location: Islamabad Airport

Current Time: Sep 16, 2014 at 9:35:25 PM

Latest Report: Sep 16, 2014 at 9:00 PM


Visibility: 4 mi

Pressure: 29.71 "Hg

Humidity: 79%

Dew point: 73 °F

Location of IslamabadLocation

Historic Weather in Islamabad — Graph

°F

Islamabad temperature yesterday

Maximum temperature yesterday: 91 °F (at 2:00 PM)
Minimum temperature yesterday: 68 °F (at 6:00 AM)
Average temperature yesterday: 79 °F

Past Weeks' High & Low Weather Summary

 TemperatureHumidityPressure
High93 °F (Sep 9, 3:00 PM)100% (Sep 4, 5:00 PM)29.86 "Hg (Sep 4, 5:00 PM)
Low66 °F (Sep 14, 8:00 AM)41% (Sep 15, 3:00 PM)29.56 "Hg (Sep 6, 3:00 AM)
Average78 °F74%29.74 "Hg
* Reported Sep 1 7:00 PM — Sep 16 7:00 PM, Islamabad, Weather by CustomWeather, © 2014

Note: Actual official high and low records may vary slightly from our data, if they occured in-between our weather recording intervals... More about our weather records

Advertising

Islamabad weather history for previous 24 hours

 ConditionsComfort  
Time TempWeatherWind HumidityBarometerVisibility
7:00 PM
Sep 16
86 °FPassing clouds.5 mph66%29.68 "Hg4 mi
6:00 PM88 °FPassing clouds.7 mph62%29.68 "Hg4 mi
5:00 PM90 °FPassing clouds.7 mph52%29.68 "Hg4 mi
4:00 PM91 °FPassing clouds.7 mph52%29.68 "Hg4 mi
3:00 PM91 °FPassing clouds.9 mph52%29.68 "Hg4 mi
2:00 PM90 °FScattered clouds.9 mph52%29.71 "Hg4 mi
1:00 PM88 °FScattered clouds.12 mph55%29.74 "Hg4 mi
12:00 PM86 °FScattered clouds.12 mph59%29.77 "Hg4 mi
11:00 AM86 °FPassing clouds.12 mph59%29.80 "Hg4 mi
10:00 AM84 °FSunny.7 mph58%29.80 "Hg4 mi
9:00 AM79 °FSunny.7 mph65%29.80 "Hg4 mi
8:00 AM75 °FSunny.7 mph74%29.77 "Hg4 mi
7:00 AM72 °FSunny.N/A78%29.77 "Hg4 mi
6:00 AM72 °FSunny.5 mph83%29.74 "Hg4 mi
5:00 AM72 °FPassing clouds.7 mph83%29.71 "Hg4 mi
4:00 AM72 °FPassing clouds.5 mph78%29.71 "Hg4 mi
3:00 AM73 °FPassing clouds.12 mph78%29.71 "Hg4 mi
2:00 AM75 °FPassing clouds.12 mph65%29.71 "Hg4 mi
1:00 AM77 °FPassing clouds.7 mph61%29.71 "Hg4 mi
12:00 AM77 °FPassing clouds.7 mph61%29.71 "Hg4 mi
11:00 PM
Sep 15
77 °FPassing clouds.7 mph61%29.71 "Hg4 mi
10:00 PM79 °FPassing clouds.7 mph58%29.74 "Hg4 mi
9:00 PM81 °FPassing clouds.7 mph54%29.74 "Hg4 mi
Weather by CustomWeather, © 2014

See weather overviewHow to use our weather pages